{"data":{"norad_id":63760,"intl_designator":"2025-089K","name":"STARLINK-11701 [DTC]","alt_names":[],"object_type":"PAYLOAD","status":"ACTIVE","operator":null,"country":"US","launch_date":"2025-04-29","launch_site_code":"AFETR","launch_vehicle":null,"mission":null,"orbit_class":"UNKNOWN","rcs_meters":null,"size_class":null,"mass_kg":null,"dimensions":null,"purposes":["comms"],"wikipedia_slug":null,"has_3d_model":false,"image_url":null,"decayed_at":null,"tle_current":{"epoch":"2026-09-20T18:56:37.218624Z","epoch_age_seconds":124903,"freshness":"FRESH","line1":"1 63760U 25089K   26263.78931966  .00159196  00000+0  12085-2 0  9992","line2":"2 63760  42.9991 195.8835 0002704 226.0887 133.9757 15.71073448 80826","mean_motion":15.71073448,"eccentricity":0.0002704,"inclination_deg":42.9991,"raan_deg":195.8835,"arg_perigee_deg":226.0887,"mean_anomaly_deg":133.9757,"bstar":0.0012085,"rev_number":8082,"period_min":91.657077002551,"perigee_km":354.00704200631,"apogee_km":357.64877022754,"semimajor_km":6733.9649061169,"source":"CELESTRAK","updated_at":"2026-09-21T09:00:35.094537Z"}}}